Location: East Guldeford
(50.9500°N, 0.7500°E)
Time: 09:44:51
(UTC+00:00)

Cosmos 1782 - Pass Details

Date: 12 May 2021
Orbit: 537 x 550 km, 82.5° (Epoch: 16 June)

Event Time Altitude Azimuth Distance (km) Brightness Sun altitude
Rises 20:16:35 0° 176° (S) 2,705 5.9 -6.0°
Reaches altitude 10° 20:18:46 10° 172° (S) 1,815 5.0 -6.3°
Maximum altitude 20:22:40 53° 96° (E) 675 3.0 -6.8°
Drops below altitude 10° 20:26:34 10° 19° (NNE) 1,823 5.8 -7.2°
Sets 20:28:46 0° 15° (NNE) 2,719 6.8 -7.5°
